Regional Weather Roundup
Issued by NWS Newport/Morehead, NC

Current Version | Previous Version | Graphics & Text | Print | Product List | Glossary Off
Versions: 1 2 3 4 5 6 7 8 9 10 11 12 13 14 15 16 17 18 19 20 21 22 23 24 25 26 27 28 29 30 31 32 33 34 35 36 37 38 39 40 41 42 43 44 45 46 47 48 49 50

351
ASUS42 KMHX 221313
RWRMHX
WEATHER ROUNDUP FOR EASTERN NORTH CAROLINA
NATIONAL WEATHER SERVICE NEWPORT/MOREHEAD CITY NC
900 AM EDT SUN OCT 22 2017

NOTE: "FAIR" INDICATES FEW OR NO CLOUDS BELOW 12,000 FEET
WITH NO SIGNIFICANT WEATHER AND/OR OBSTRUCTIONS TO VISIBILITY

NCZ015>017-031-032-045>047-102-103-221400-
NORTH COAST

CITY           SKY/WX    TMP DP  RH WIND       PRES   REMARKS
EDENTON        MOSUNNY   58  56  94 CALM      30.39R
ELIZABETH CITY MOSUNNY   64  63  96 N3        30.39R
KITTY HAWK     CLOUDY    68  64  86 CALM      30.37R
MANTEO         CLOUDY   N/A N/A N/A E6        30.38R

$$

NCZ045>047-081-094-103-104-221400-
CENTRAL COAST

CITY           SKY/WX    TMP DP  RH WIND       PRES   REMARKS
FRISCO         PTSUNNY   72  65  78 NE5       30.36R

$$

NCZ095-097-098-100-101-221400-
SOUTHERN COAST

CITY           SKY/WX    TMP DP  RH WIND       PRES   REMARKS
BEAUFORT       MOSUNNY   69  66  90 NE7       30.35R
CEDAR ISLAND   NOT AVBL
JACKSONVILLE   PTSUNNY   64  63  96 CALM      30.35R
PINEY ISLAND     N/A    N/A N/A N/A N7        30.36R
WILMINGTON     PTSUNNY   66  60  81 NE5       30.34R


$$

NCZ011>013-027>030-043-044-078>080-089-090>093-098-221400-
COASTAL PLAIN

CITY           SKY/WX    TMP DP  RH WIND       PRES   REMARKS
AHOSKIE        MOSUNNY   54  54  99 CALM      30.39R
CLINTON        MOSUNNY   58  58  99 CALM      30.36R
ELIZABETHTOWN  NOT AVBL
GOLDSBORO      MOSUNNY   58  57  96 NE3       30.35R FOG
GREENVILLE     MOSUNNY   55  55 100 CALM      30.37R
HAVELOCK         N/A     65  64  97 N6        30.37R
KENANSVILLE    MOSUNNY   55  55 100 CALM      30.36R FOG
KINSTON        FOG       57  57 100 CALM      30.38R VSB 1
NEW BERN       MOSUNNY   62  62 100 NE3       30.38R
RICHLANDS      CLOUDY    62  61  96 NE3       30.36R FOG
ROCKY MOUNT    PTSUNNY   56  56 100 NE3       30.38R FOG
WASHINGTON     PTSUNNY   59  58  94 CALM      30.38R
WHITEVILLE     PTSUNNY   61  59  95 CALM      30.33S

$$

AMZ130-135-150-152-154-156-158-170-250-252-270-ANZ085-086-088-633-658-670-221400-
MARINE OBSERVATIONS

STATION/POSITION TIME  TEMP    WIND        PRES    WAVE   SWELL
                       AIR SEA DIR/SP/G            HT/PER HT/PER
                 (UTC) (F)     (DEG/KT/KT) (MB)    (FT/S) (FT/S)
CHESAPEAKE LIGHT NOT AVBL
64 E VA BEACH    1250   69 68   70/  8/ 10 1029.4    2/ 8   2/ 8
DUCK             1248   70 70   70/  8/ 10 1028.4
2 E DUCK         1300      70                N/A     2/ 8
OREGON INLET     1236   69 71   40/  6/ 10 1028.3
13E OREGON INLT  1248      73                N/A     2/ 8   2/ 8
HATTERAS CG      1248   71 72   60/  4/  6 1027.9
DIAMOND BUOY     1250   76 81   70/  6/  8 1027.8    3/ 9   3/ 9
CAPE LOOKOUT     1200   67      10/  8/  9 1026.9
BEAUFORT LAB     1248   67 72   30/  5/  8 1027.8
30 SE NEW RVR IN 1208   74      60/ 14/ 16 1026.4
30 SE NEW RVR IN NOT AVBL
27 SE WRIGHTSVLE 1208   74 75   70/ 12/ 17 1026.4
5 SE WRIGHTSVLE  1208   72 74   60/ 14/ 19 1026.6
225 S CAPE HAT   1250   77 80  100/ 14/ 16 1025.8    4/ 9   3/ 9
41 SE CHARLESTON 1250   79 79   90/ 16/ 21 1024.2    4/ 8   2/ 8

$$




USA.gov is the U.S. government's official web portal to all federal, state and local government web resources and services.